Tracking 20942 objects as of 11-Jul-2020
HD Live streaming from Space Station
objects crossing your sky now

THOR ABLESTAR DEB

Track THOR ABLESTAR DEB now!
10-day predictions


NORAD ID: 3842
Int'l Code: 1961-015JF
Perigee: 913.4 km
Apogee: 1,097.4 km
Inclination: 66.7 °
Period: 105.1 minutes
Semi major axis: 7376 km
RCS: 0.0118 m2 (small)
Launch date: June 29, 1961
Source: United States (US)
Launch site: AIR FORCE EASTERN TEST RANGE (AFETR)

Note: This is SATELLITE DEBRIS
aabbcc
Your satellite tracking list
Your tracking list is empty




NASA's NSSDC Master Catalog

Two Line Element Set (TLE):
1  3842U 61015JF  20192.53211045 +.00000117 +00000-0 +20362-3 0  9990
2  3842 066.7390 116.2873 0124729 109.0201 252.4427 13.70366971938016
Source of the keplerian elements: AFSPC